Vertical_Velocity
-2 -2 -0 1 -2 -1 -3 -4 -5 -0 -2 0 -2 2 -2 -1 -3 -1 -15 -9 -4 9 1 2 4 2 2 2 2 2 -3 -0 -2 -0 -5 1 -1 2 2 -3 2 -2 -1 -0 -2
-1 -1 1 -3 3 2 1 3 -3 -0 -2 -2 -1 -3 5 3 -2 -13 -2 2 -3 10 -0 1 1 4 1 0 2 -2 -1 -5 -4 -1 -1 -1 0 -2 -1 1 -0 0 2 -1 1
-3 -1 -2 0 0 1 -2 -2 0 -2 -0 -2 1 -2 -5 14 -1 -52 8 3 2 3 9 3 4 6 2 3 -1 0 -3 -2 -2 -0 2 0 -0 0 -1 1 -4 -15 -2 -0 -1
-4 -2 3 -1 0 -3 0 -2 -2 -1 -2 0 -2 -3 1 8 -5 4 9 -3 11 4 7 6 5 3 1 0 0 0 -0 -1 -2 2 -0 -1 1 0 0 -4 0 4 6 -1 -1
-6 1 -6 -2 1 0 -0 -3 -0 -1 -2 -1 -3 1 -5 0 -22 -4 7 3 0 10 1 4 3 -1 -1 -0 2 2 -1 1 -2 -1 -2 4 -3 -2 -3 -2 4 1 1 -1 2
-1 -1 -11 -2 -1 -1 -1 0 -2 -2 -2 -3 4 4 8 10 -25 -5 6 6 6 1 2 4 -2 -4 -1 -1 -2 -1 -2 -4 0 -4 -1 2 -3 2 -5 -0 -2 1 -1 1 -1
1 1 3 -0 -3 -3 -5 -6 -1 2 2 2 1 7 5 -58 -6 -5 7 -2 5 2 1 3 2 7 -2 -0 1 -2 1 -1 -1 -2 -3 4 -1 -2 -7 3 1 -2 1 4 -4
2 1 -3 0 -0 -2 -4 -7 -7 -2 10 2 0 12 -16 -3 -10 -12 12 -3 -4 4 -1 8 10 2 1 4 0 0 0 4 -3 1 -5 1 -13 -5 -3 4 -2 1 -1 -1 -3
1 -4 -1 -3 -5 -4 -4 -2 -11 2 -1 4 6 13 -23 8 -23 14 -4 -13 7 7 -0 6 13 -3 6 1 -1 -0 -2 1 -3 -1 -1 -1 -4 -5 -3 1 -3 -2 0 1 -0
1 -1 2 -4 -3 -2 -3 -5 -7 -3 -1 2 -1 13 -1 -19 -3 2 3 5 2 4 -3 10 7 -0 2 4 -11 -3 1 0 -2 -4 2 1 -4 -2 -1 3 -6 -3 1 0 -1
-2 -2 0 -1 -1 -1 -10 -19 -21 -10 3 5 -0 -9 5 13 28 1 14 11 16 11 3 -0 2 -5 -11 -4 -3 -2 0 -1 -1 -2 -1 -2 -1 -6 -5 3 1 -3 -2 -2 -4
-2 -0 -2 -6 -4 -2 -2 3 12 25 -4 -17 -12 -7 -9 39 -4 5 16 4 5 -4 6 7 -5 -12 -1 1 1 2 1 -2 -3 0 -1 -1 -4 -4 -0 -4 -5 -3 -3 -4 -1
-2 -0 2 -1 -3 3 1 -1 6 3 11 -19 -14 -8 -2 16 -14 -30 22 -2 -2 8 -1 -4 -21 2 1 2 5 -0 -1 -1 -3 0 0 -0 -4 -1 -4 2 1 -3 -4 -0 -3
0 -2 -1 5 -4 -2 -1 -2 1 7 8 -17 0 -11 3 8 -1 -28 13 -17 8 -11 -2 -8 -9 -0 3 -1 -1 6 -5 0 1 1 -3 -4 -8 -2 -2 -2 0 -3 -0 -5 -3
1 -0 3 7 -3 -4 1 -2 -2 -1 7 -24 -3 9 4 -12 -6 -20 -9 40 -4 -3 9 -30 3 4 6 -24 -0 -20 -1 -2 -1 1 0 -1 2 -13 1 -0 -3 -4 -4 -8 -6
0 2 2 3 1 2 -4 -6 -4 6 -17 -8 1 3 -3 6 -4 5 3 16 -8 4 8 -14 -1 1 -17 -4 -3 -1 -1 0 -1 -2 4 -10 2 -5 -3 -8 -3 -2 -5 -6 -2
0 -4 4 9 -14 5 2 -10 -11 5 -13 -9 1 -1 1 -3 -1 8 3 12 -4 6 4 2 -5 -0 -3 3 5 5 2 1 2 3 -12 -1 7 -22 -2 -2 -5 -4 -4 -5 -1
6 -7 -1 2 10 8 8 -0 6 -7 -4 -10 1 -4 5 1 -5 -3 5 6 9 0 -0 -3 12 -0 -2 -10 -18 -9 -9 -8 -6 -2 -8 1 -4 -19 -6 -4 1 1 -3 -0 -1
-0 -3 -6 7 0 -1 -1 4 -13 -1 -1 2 -10 1 -1 1 5 -4 1 -1 -4 -3 -7 1 -4 4 2 -2 -13 -3 9 -25 -4 -1 -1 -5 -7 -7 -0 -1 -0 -1 1 -2 -1
-3 -5 -3 2 1 -1 0 -5 -2 -1 4 0 1 6 1 -2 -1 -5 -0 -4 -6 -2 0 -3 -1 -3 -10 6 3 -16 -20 6 2 -1 0 -3 -1 -9 0 -2 -0 0 -1 -2 2
3 -2 4 3 1 11 -1 -5 -1 -8 14 5 -0 0 0 3 1 -0 -4 -21 -1 -6 4 -1 6 -6 16 3 -9 7 8 4 -6 -2 -5 -1 -10 -6 -4 -3 -3 -2 -3 -3 -1
-2 -2 6 3 -3 -0 -0 -3 -0 -6 3 -1 3 2 1 -0 0 1 -4 -7 1 4 -0 -18 2 -0 -18 -14 -9 -9 -11 -6 -0 -4 -2 -4 -15 -1 -2 -1 -1 -2 -2 -1 1
-1 -5 8 11 -0 -0 -3 -2 -1 1 -1 -0 -0 -0 -0 1 3 1 -0 -1 -2 -1 3 0 -6 5 4 12 15 5 -2 -2 -1 2 -4 4 -18 -0 1 1 -2 -0 -3 -1 0
-3 -0 3 10 3 -1 1 -3 -0 -1 -2 1 -0 3 3 1 -1 -2 -1 -3 1 -1 -1 3 1 -8 -16 -16 -8 15 3 1 -1 8 -12 -12 -6 0 1 -1 -1 -1 -0 -1 -1
1 -5 -1 -2 -1 0 0 1 -0 -1 -0 1 -2 1 1 1 -1 0 -2 -6 -2 -1 0 2 2 5 -4 -1 3 -4 -4 -0 5 -14 1 -26 -1 -7 -3 -4 -5 -4 3 2 -2
-8 -4 2 -1 1 2 -1 -2 1 -7 8 -4 2 -2 1 2 2 -1 8 1 3 3 0 0 -4 3 0 0 1 2 -0 0 -0 -1 3 3 -6 -5 -2 2 0 -1 1 -1 -2
4 -2 1 -4 1 1 -4 -4 -3 2 -6 0 1 3 1 -5 2 -2 2 -1 -2 1 -0 -1 -0 -2 -6 0 5 12 -14 -4 -3 0 -9 2 -33 -0 2 0 -2 -1 -2 -5 -3
Height
1519 1517 1514 1513 1510 1506 1503 1499 1498 1498 1497 1497 1496 1496 1497 1496 1491 1489 1482 1483 1486 1488 1486 1487 1487 1488 1489 1488 1489 1489 1497 1502 1491 1489 1482 1476 1476 1477 1479 1478 1481 1483 1483 1486 1489
1518 1515 1512 1509 1507 1503 1499 1497 1495 1493 1492 1492 1492 1491 1491 1491 1487 1479 1478 1478 1479 1483 1484 1484 1485 1486 1487 1486 1486 1486 1495 1490 1480 1478 1479 1477 1476 1475 1478 1479 1480 1481 1482 1484 1487
1516 1512 1510 1507 1504 1500 1496 1494 1492 1489 1488 1487 1488 1487 1487 1487 1483 1469 1473 1471 1469 1474 1477 1481 1482 1484 1484 1484 1482 1481 1485 1480 1475 1476 1477 1476 1475 1476 1474 1479 1476 1477 1479 1482 1485
1514 1510 1506 1504 1500 1498 1494 1490 1488 1485 1484 1482 1482 1483 1483 1484 1479 1469 1468 1466 1465 1468 1473 1475 1478 1480 1480 1480 1478 1480 1475 1475 1472 1473 1474 1476 1476 1474 1473 1472 1473 1475 1476 1478 1482
1510 1508 1504 1501 1498 1494 1490 1486 1483 1481 1479 1478 1478 1479 1478 1476 1461 1466 1466 1465 1465 1471 1471 1473 1473 1475 1477 1475 1476 1476 1473 1473 1471 1471 1472 1473 1473 1473 1472 1472 1473 1473 1476 1477 1479
1508 1504 1500 1497 1493 1489 1486 1482 1479 1477 1475 1475 1474 1473 1475 1465 1457 1460 1462 1462 1464 1467 1468 1471 1470 1470 1471 1471 1472 1469 1470 1469 1470 1470 1471 1472 1469 1472 1468 1471 1472 1473 1473 1475 1476
1504 1500 1497 1492 1488 1484 1481 1479 1476 1473 1470 1469 1469 1468 1464 1440 1449 1450 1454 1456 1459 1463 1464 1466 1468 1469 1468 1468 1465 1466 1471 1468 1467 1468 1470 1470 1472 1467 1467 1467 1468 1470 1472 1473 1474
1501 1497 1493 1489 1485 1481 1476 1473 1470 1467 1464 1463 1463 1463 1448 1436 1444 1443 1447 1449 1453 1457 1461 1462 1464 1466 1465 1464 1464 1466 1469 1473 1462 1463 1464 1467 1467 1460 1462 1464 1463 1466 1467 1469 1470
1497 1494 1491 1486 1482 1477 1472 1468 1464 1460 1457 1456 1458 1458 1439 1429 1427 1432 1442 1443 1449 1452 1456 1459 1460 1458 1463 1466 1472 1469 1476 1472 1465 1459 1460 1464 1463 1455 1458 1458 1458 1459 1460 1462 1463
1494 1490 1485 1481 1478 1473 1468 1464 1457 1452 1450 1448 1451 1455 1431 1419 1422 1424 1432 1440 1444 1449 1451 1452 1454 1454 1457 1461 1459 1468 1468 1466 1466 1456 1459 1462 1459 1454 1452 1453 1451 1452 1453 1454 1456
1490 1487 1483 1480 1475 1472 1466 1461 1458 1453 1449 1447 1443 1431 1416 1416 1420 1419 1425 1433 1440 1446 1446 1444 1450 1444 1439 1446 1451 1453 1457 1458 1457 1452 1456 1459 1455 1447 1447 1448 1448 1447 1447 1447 1447
1487 1483 1480 1477 1473 1470 1467 1467 1464 1461 1441 1438 1431 1421 1416 1420 1420 1413 1421 1426 1430 1432 1436 1444 1433 1429 1437 1441 1449 1451 1454 1455 1453 1451 1454 1454 1453 1443 1442 1441 1439 1439 1440 1440 1443
1482 1479 1476 1473 1471 1468 1466 1466 1464 1459 1448 1422 1415 1407 1404 1415 1412 1406 1410 1412 1415 1421 1425 1428 1411 1427 1431 1437 1444 1443 1447 1451 1452 1448 1450 1450 1451 1441 1433 1432 1433 1433 1432 1434 1434
1477 1475 1473 1471 1469 1467 1466 1464 1463 1459 1449 1417 1406 1394 1392 1399 1399 1401 1402 1405 1409 1410 1415 1416 1420 1419 1426 1428 1432 1439 1433 1443 1449 1455 1465 1449 1465 1440 1432 1429 1426 1424 1424 1424 1426
1472 1470 1468 1465 1464 1464 1466 1462 1460 1460 1454 1405 1397 1392 1389 1392 1387 1387 1393 1398 1396 1397 1408 1405 1405 1414 1418 1409 1422 1422 1431 1439 1445 1451 1454 1453 1462 1437 1427 1429 1422 1414 1416 1417 1417
1467 1466 1465 1463 1461 1460 1460 1460 1460 1461 1456 1407 1395 1397 1395 1388 1386 1385 1387 1394 1392 1396 1397 1395 1400 1406 1403 1411 1415 1423 1433 1440 1448 1457 1462 1440 1448 1432 1424 1418 1410 1409 1407 1407 1408
1461 1460 1460 1459 1456 1457 1458 1460 1473 1457 1422 1406 1402 1398 1400 1398 1386 1383 1381 1385 1385 1394 1400 1400 1397 1397 1400 1412 1416 1422 1434 1451 1458 1463 1440 1434 1446 1413 1410 1404 1398 1399 1399 1400 1401
1455 1454 1453 1451 1451 1451 1456 1462 1468 1433 1423 1406 1406 1398 1397 1395 1384 1379 1378 1370 1372 1377 1391 1398 1404 1393 1390 1393 1401 1408 1415 1435 1451 1456 1431 1437 1431 1410 1396 1393 1391 1393 1394 1395 1394
1449 1449 1445 1445 1443 1444 1453 1457 1454 1428 1421 1415 1410 1404 1393 1399 1406 1391 1373 1365 1371 1372 1380 1389 1393 1381 1384 1386 1390 1404 1410 1404 1430 1435 1441 1426 1415 1401 1393 1393 1391 1389 1390 1391 1392
1444 1443 1440 1440 1440 1443 1449 1446 1433 1422 1419 1418 1421 1410 1407 1399 1407 1408 1405 1374 1367 1371 1371 1380 1392 1374 1373 1384 1383 1384 1391 1416 1417 1437 1438 1422 1418 1401 1390 1384 1385 1386 1384 1386 1390
1441 1440 1436 1436 1439 1442 1442 1439 1426 1420 1421 1420 1417 1414 1407 1405 1402 1404 1406 1392 1388 1374 1372 1369 1371 1370 1371 1370 1376 1384 1387 1393 1400 1416 1412 1419 1403 1385 1380 1379 1381 1379 1378 1382 1387
1437 1440 1435 1435 1439 1434 1431 1425 1419 1415 1415 1413 1411 1410 1406 1403 1403 1396 1395 1396 1389 1392 1385 1365 1368 1373 1364 1357 1362 1366 1372 1378 1391 1407 1394 1408 1384 1367 1370 1370 1372 1373 1374 1379 1385
1430 1431 1432 1433 1432 1432 1425 1419 1416 1412 1409 1409 1406 1400 1397 1397 1400 1388 1386 1387 1392 1395 1394 1390 1361 1367 1365 1360 1359 1361 1362 1365 1372 1381 1400 1396 1376 1365 1368 1370 1370 1371 1374 1378 1383
1427 1429 1425 1425 1422 1421 1421 1416 1411 1408 1406 1405 1403 1400 1399 1396 1390 1389 1382 1381 1383 1387 1394 1396 1376 1345 1344 1347 1348 1356 1353 1358 1362 1369 1368 1375 1366 1367 1366 1368 1366 1368 1370 1375 1379
1420 1418 1416 1420 1417 1415 1417 1415 1411 1408 1403 1401 1400 1399 1400 1398 1390 1384 1382 1377 1377 1380 1389 1390 1378 1349 1342 1340 1341 1342 1344 1349 1355 1353 1363 1348 1357 1360 1362 1361 1359 1361 1366 1372 1376
1410 1415 1414 1413 1413 1412 1411 1409 1406 1402 1402 1399 1399 1397 1397 1398 1396 1392 1388 1384 1381 1379 1374 1380 1366 1365 1338 1340 1338 1338 1341 1345 1346 1344 1355 1349 1348 1349 1355 1357 1358 1358 1363 1367 1371
1400 1404 1407 1406 1407 1410 1406 1401 1399 1398 1397 1395 1396 1397 1395 1392 1388 1386 1383 1381 1377 1375 1378 1374 1373 1375 1330 1332 1337 1339 1332 1334 1340 1336 1334 1339 1324 1346 1351 1354 1353 1356 1360 1363 1366